Home   Weather   Tuscaloosa   Past weeks

Flag for USA Past Weather in Tuscaloosa, Alabama, USA — Yesterday and Last 2 Weeks

Now
45 °F

Sunny.


Feels Like: 41 °F
Forecast: 24 / 48 °F
Wind: 7 mph from East

Location: Tuscaloosa Municipal Airport

Current Time: Dec 10, 2016 at 12:36:03 pm

Latest Report: Dec 10, 2016 at 11:53 am


Visibility: 10 mi

Pressure: 30.51 "Hg

Humidity: 31%

Dew Point: 16 °F

Location of TuscaloosaLocation

Past Weather in Tuscaloosa — Graph

°F

Tuscaloosa Temperature Yesterday

Maximum temperature yesterday: 44 °F (at 2:53 pm)
Minimum temperature yesterday: 26 °F (at 5:53 am)
Average temperature yesterday: 33 °F

High & Low Weather Summary for the Past Weeks

 TemperatureHumidityPressure
High75 °F (Nov 28, 3:53 pm)100% (Nov 29, 6:53 am)30.63 "Hg (Nov 29, 6:53 am)
Low25 °F (Dec 10, 5:53 am)25% (Dec 2, 12:53 pm)29.52 "Hg (Nov 28, 5:53 pm)
Average50 °F74%30.10 "Hg
* Reported Nov 25 10:53 am — Dec 10 10:53 am, Tuscaloosa, Weather by CustomWeather, © 2016

Note: Actual official high and low records may vary slightly from our data, if they occured in-between our weather recording intervals... More about our weather records

Advertising

Tuscaloosa Weather History for the Previous 24 Hours

Scroll right to see more
 ConditionsComfort  
Time TempWeatherWind HumidityBarometerVisibility
10:53 am
Sat, Dec 10
43 °FSunny.6 mph38%30.56 "Hg10 mi
9:53 am40 °FSunny.10 mph45%30.60 "Hg10 mi
8:53 am35 °FSunny.5 mph64%30.62 "Hg10 mi
7:53 am29 °FSunny.5 mph79%30.59 "Hg10 mi
6:53 am25 °FSunny.7 mph85%30.59 "Hg10 mi
5:53 am25 °FClear.5 mph81%30.59 "Hg10 mi
4:53 am26 °FClear.No wind81%30.55 "Hg10 mi
3:53 am27 °FClear.3 mph78%30.56 "Hg10 mi
2:53 am27 °FClear.6 mph75%30.57 "Hg10 mi
1:53 am28 °FClear.5 mph72%30.57 "Hg10 mi
12:53 am27 °FClear.6 mph75%30.57 "Hg10 mi
11:53 pm
Fri, Dec 9
27 °FClear.No wind81%30.57 "Hg10 mi
10:53 pm28 °FClear.5 mph72%30.57 "Hg10 mi
9:53 pm30 °FClear.6 mph66%30.57 "Hg10 mi
8:53 pm30 °FClear.7 mph66%30.55 "Hg10 mi
7:53 pm31 °FClear.3 mph64%30.55 "Hg10 mi
6:53 pm32 °FClear.3 mph64%30.55 "Hg10 mi
5:53 pm37 °FClear.3 mph46%30.53 "Hg10 mi
4:53 pm40 °FClear.5 mph38%30.52 "Hg10 mi
3:53 pm43 °FSunny.8 mph32%30.52 "Hg10 mi
2:53 pm44 °FSunny.8 mph31%30.51 "Hg10 mi
1:53 pm43 °FSunny.12 mph34%30.52 "Hg10 mi
12:53 pm43 °FSunny.13 mph35%30.55 "Hg10 mi
Weather by CustomWeather, © 2016

See weather overviewHow to use our weather pages